Location: Southlake
(32.9412°N, 97.1342°W)
Time: 09:22:17
(UTC+00:00)

Cosmos 1777 Rocket - Pass Details

Date: 03 December 2021
Orbit: 757 x 776 km, 74.0° (Epoch: 27 January)

Event Time Altitude Azimuth Distance (km) Brightness Sun altitude
Rises 12:26:22 0° 198° (SSW) 3,198 7.3 -10.3°
Reaches altitude 10° 12:28:43 10° 199° (SSW) 2,278 6.5 -9.8°
Maximum altitude 12:33:53 82° 286° (WNW) 772 3.9 -8.8°
Drops below altitude 10° 12:39:07 10° 15° (NNE) 2,300 6.4 -7.8°
Sets 12:41:30 0° 16° (NNE) 3,233 7.2 -7.3°
